This is the latest recevied weather packets stored in our database for station/object NI0Z. If no packets are shown the sender has not sent any weather packets the latest 10 day(s).
| Time | Temp. | Humidity | Pressure | Rain* | Wind** | Luminosity | Snow |
|---|---|---|---|---|---|---|---|
| 1777769913 | 14.44° C | 42% | - | 0 mm | - | - | - |
| 1777769611 | 15° C | 41% | - | 0 mm | - | - | - |
| 1777769307 | 15° C | 40% | - | 0 mm | - | - | - |
| 1777769005 | 15° C | 39% | - | 0 mm | - | - | - |
| 1777768702 | 15.56° C | 38% | - | 0 mm | - | - | - |
| 1777768399 | 15.56° C | 40% | - | 0 mm | - | - | - |
| 1777768096 | 15.56° C | 37% | - | 0 mm | - | - | - |
| 1777767792 | 15.56° C | 36% | - | 0 mm | - | - | - |
| 1777767489 | 16.11° C | 37% | - | 0 mm | - | - | - |
| 1777767185 | 16.11° C | 35% | - | 0 mm | - | - | - |
| 1777766883 | 16.11° C | 35% | - | 0 mm | - | - | - |
| 1777766580 | 16.11° C | 35% | - | 0 mm | - | - | - |
| 1777766277 | 16.67° C | 32% | - | 0 mm | - | - | - |
| 1777765975 | 17.22° C | 31% | - | 0 mm | - | - | - |
| 1777765670 | 16.67° C | 33% | - | 0 mm | - | - | - |
| 1777765368 | 16.67° C | 38% | - | 0 mm | - | - | - |
| 1777765064 | 16.67° C | 35% | - | 0 mm | - | - | - |
| 1777764761 | 16.11° C | 37% | - | 0 mm | - | - | - |
| 1777764457 | 16.11° C | 36% | - | 0 mm | - | - | - |
| 1777764154 | 16.67° C | 35% | - | 0 mm | - | - | - |
| 1777763851 | 16.67° C | 36% | - | 0 mm | - | - | - |
| 1777763548 | 16.11° C | 40% | - | 0 mm | - | - | - |
| 1777763247 | 16.11° C | 37% | - | 0 mm | - | - | - |
| 1777762945 | 16.11° C | 35% | - | 0 mm | - | - | - |
| 1777762641 | 16.11° C | 35% | - | 0 mm | - | - | - |
* Rain latest hour (hover to see other rain measurements)
** Current wind speed in m/s (hover to see current wind gust speed)